Other Public Products
Issued by NWS Grand Forks, ND

Home | Current Version | Previous Version | Graphics & Text | Print | Product List | Glossary On
Versions: 1 2 3 4 5 6 7 8 9 10 11 12 13 14 15 16 17 18 19 20 21 22 23 24 25 26 27 28 29 30 31 32 33 34 35 36 37 38 39 40 41 42 43 44 45 46 47 48 49 50
000
FPUS83 KFGF 291331
OPUFGF
PRAIRIE TO PINES WEATHER ROUNDUP
NATIONAL WEATHER SERVICE EASTERN NORTH DAKOTA/GRAND FORKS ND
800 AM CDT MON MAY 29 2017

 **SATELLITE DATA USED TO AUGMENT SKY COVER AT AUTOMATED STATIONS**
 *****  WEATHER ACROSS EASTERN NORTH DAKOTA  *****

CITY           SKY/WX    TMP DP  RH WIND       PRES   REMARKS
GRAND FORKS    LGT RAIN  50  48  93 N17G24    29.85R FOG
GRAND FORKS AF LGT RAIN  50  50 100 N13       29.86S
GRAND CITY NWS NOT AVBL
BUXTON           N/A     50  50  99 NW17        N/A
DEVILS LAKE    LGT RAIN  49  46  90 NW18      29.92R
FARGO          CLOUDY    52  49  89 NW18G25   29.85S
WAHPETON ARPT  CLOUDY    52  46  82 NW10      29.86S
$$

 *****  WEATHER ACROSS CENTRAL AND WESTERN NORTH DAKOTA  *****

CITY           SKY/WX    TMP DP  RH WIND       PRES   REMARKS
JAMESTOWN      CLOUDY    51  47  86 NW18G26   29.91S
BISMARCK       PTSUNNY   54  43  66 NW14      30.03R
MINOT          FAIR      53  45  74 NW21G29   30.01R
MINOT AFB      PTSUNNY   52  45  76 NW23G29   30.00R
GARRISON         N/A     50  43  77 NW24G30   30.03R
WILLISTON      CLOUDY    50  40  68 NW15      30.13R
DICKINSON      FAIR      46  39  76 W13       30.10R
HETTINGER      FAIR      49  40  71 NW14      30.13R
$$

 *****  OTHER OBSERVATIONS NORTHEAST NORTH DAKOTA  *****

CITY           SKY/WX    TMP DP  RH WIND       PRES   REMARKS
WALHALLA       NOT AVBL
LANGDON        CLOUDY    48  48 100 NW12G17   29.88S
CAVALIER       CLOUDY    48  48 100 NW12      29.86S
GRAFTON        PTSUNNY   48  48 100 NW13      29.87S
CANDO          NOT AVBL
FORT TOTTEN      N/A     49  47  91 NW7       29.95S
ROLLA          CLOUDY    50  50 100 NW23G29   29.93R
RUGBY          NOT AVBL
 ***** THE ABOVE OBSERVATIONS ARE NON NWS ARE NOT QUALITY
        CONTROLLED AND MAY MIS-REPORT RAIN FOR SNOW...
$$

 *****  OTHER OBSERVATIONS SOUTHEAST NORTH DAKOTA *****

CITY           SKY/WX    TMP DP  RH WIND       PRES   REMARKS
COOPERSTOWN    DRIZZLE   50  48  93 NW14G21   29.90R
VALLEY CITY    CLOUDY    52  50  93 N17G25    29.91R
OAKES          NOT AVBL
GWINNER        CLOUDY    54  50  87 MISG      29.89S
SHEYENNE NWR     N/A     54  47  76 N12       29.95S
BUFFALO          N/A     50  47  87 CALM        N/A
WYNDMERE         N/A     52  50  93 NW10        N/A
 ***** THE ABOVE OBSERVATIONS ARE NON NWS ARE NOT QUALITY
       CONTROLLED AND MAY MIS-REPORT RAIN FOR SNOW...
$$

  *****  WEATHER ACROSS NORTHERN MINNESOTA  *****

CITY           SKY/WX    TMP DP  RH WIND       PRES   REMARKS
FLAG ISLAND    CLOUDY    46  45  93 NW21      29.72S
WARROAD        CLOUDY    46  43  87 NW12G23   29.76S
ROSEAU         CLOUDY    48  43  81 NW15      29.78R
HALLOCK        CLOUDY    48  45  87 N16       29.84R
THF RVR FALLS  CLOUDY    48  45  87 NW21G28   29.80F
HALSTAD          N/A     51  48  90 NW17        N/A
FOSSTON        CLOUDY    46  45  93 NW10G16   29.81R
BAUDETTE       CLOUDY    48  47  96 NW14      29.72R
WASKISH        CLOUDY    48  46  93 NW10      29.73S
CROOKSTON      CLOUDY    48  48 100 N22G28    29.83S
$$
  *****  WEATHER ACROSS CENTRAL AND WEST MINNESOTA  *****

CITY           SKY/WX    TMP DP  RH WIND       PRES   REMARKS
BEMIDJI        CLOUDY    47  46  93 W15G21    29.76S
PARK RAPIDS    CLOUDY    50  45  83 NW16      29.76S
WADENA         CLOUDY    48  46  93 NW12G18   29.79S
DETROIT LAKES  DRIZZLE   46  46 100 NW15G21   29.83R
MOORHEAD       DRIZZLE   50  48  93 NW17      29.85F
FERGUS FALLS   MIX PCPN  50  50 100 N16G22    29.83S
ELBOW LAKE     CLOUDY    50  49  93 NW17G24   29.84S
MORRIS MN      PTSUNNY   54  48  82 NW17G24   29.84S
STAPLES        CLOUDY    48  46  93 W15       29.78R
WHEATON        CLOUDY    52  48  87 NW13G21   29.88S
$$
  *****  WEATHER ELSEWHERE ACROSS MINNESOTA  *****

CITY           SKY/WX    TMP DP  RH WIND       PRES   REMARKS
DULUTH         CLOUDY    52  47  83 NW16      29.65S
INTRNTL FALLS  RAIN      49  47  93 NW10      29.67R FOG
ELY            DRIZZLE   50  48  93 W13       29.62R
CLOQUET        CLOUDY    54  45  71 W15G21    29.67F
BRAINERD       CLOUDY    51  48  89 NW12      29.75S
HIBBING        LGT RAIN  48  47  96 NW13G18   29.68R
ALEXANDRIA     CLOUDY    50  48  93 NW12G21   29.83R
SAINT CLOUD    CLOUDY    53  48  83 W10       29.77S
MINNEAPOLIS    CLOUDY    56  47  71 W13G21    29.78R
$$

  *****  WEATHER ACROSS SOUTH DAKOTA  *****

CITY           SKY/WX    TMP DP  RH WIND       PRES   REMARKS
SIOUX FALLS    FAIR      55  46  71 NW15      29.94S
BROOKINGS      FAIR      51  45  79 NW15G22   29.92R
WATERTOWN      FAIR      51  45  79 NW17G23   29.90S
HURON          FAIR      53  43  68 NW17      29.97R
SISSETON         N/A     55  48  77 N21       29.86S
ABERDEEN       FAIR      50  42  74 NW16      29.94S
MITCHELL       FAIR      55  44  66 NW13      29.99R
PIERRE         FAIR      53  40  61 NW20      30.05R
MOBRIDGE       CLOUDY    53  41  63 NW16      30.01S
RAPID CITY     FAIR      50  37  61 NW6       30.15R
$$

  *****  SOME WEATHER IN NEARBY STATES *****

CITY           SKY/WX    TMP DP  RH WIND       PRES   REMARKS
GLASGOW MT     FAIR      44  33  65 NW8       30.22R
GREAT FALLS MT FAIR      48  45  89 CALM      30.24S
CHEYENNE WY    FAIR      48  37  65 W8        30.27S
SCOTTSBLUFF NE FAIR      51  42  71 W9        30.19S
OMAHA NE       FAIR      62  47  57 CALM      29.97S
DES MOINES IA  PTSUNNY   62  48  60 NW7       29.92S
DAVENPORT IA   LGT RAIN  60  49  66 W13       29.87R
CHICAGO IL     FAIR      66  49  54 W9        29.79S
EAU CLAIRE WI  CLOUDY    54  49  83 W14       29.74R
LA CROSSE WI   CLOUDY    59  48  67 W14       29.79R
$$

  *****  SOME NATIONAL WEATHER *****

CITY           SKY/WX    TMP DP  RH WIND       PRES   REMARKS
LA GUARDIA NY  CLOUDY    58  54  86 NE12      29.91R
RALEIGH NC     FAIR      76  65  68 SW6       29.95R
ATLANTA GA     PTSUNNY   73  66  78 W3        30.03R
NEW ORLEANS LA LGT RAIN  69  68  96 SW14      30.08R FOG
OKLAHOMA CITY  PTSUNNY   63  50  62 SW6       30.05F
ALBUQUERQUE NM FAIR      60  35  39 E10       30.22R
SALT LAKE CITY FAIR      56  41  57 SE5       30.15R
LOS ANGELES CA CLOUDY    60  57  89 SW5       29.92S FOG
BOISE ID       FAIR      58  43  57 SE7       30.09S
SEATTLE WA     CLOUDY    52  50  93 SW6       30.09S VSB 1
$$

*** WEATHER ACROSS MANITOBA...SASKATCHEWAN AND ONTARIO ***
                ***ONTARIO***

CITY           SKY/WX    TMP DP  RH WIND       PRES   REMARKS
GERALDTON      CLOUDY    54  52  94 S8        29.53R
THUNDER BAY    LGT RAIN  50  50 100 SW5       29.56R FOG
SIOUX LOOKOUT  CLOUDY    54  52  94 N8        29.58S
TORONTO        PTSUNNY   66  61  82 SW8       29.73S
BIG TROUT LK   LGT RAIN  54  52  94 N8        29.58S
PICKLE LAKE    LGT RAIN  52  52 100 N5        29.56R
DRYDEN         LGT RAIN  52  52 100 NW7       29.61S FOG
KENORA         CLOUDY    46  46 100 NW12G22   29.70R FOG
$$
                *** MANITOBA***

CITY           SKY/WX    TMP DP  RH WIND       PRES   REMARKS
BRANDON        PTSUNNY   52  43  71 NW21G32   29.92
DAUPHIN        LGT RAIN  46  45  93 N12G21    29.93R
ISLAND LAKE    CLOUDY    41  41 100 N8        29.75  FOG
PILOT MOUND      N/A     48  46  93 NW15        N/A
THE PAS        LGT RAIN  43  37  81 N16G22    29.99R
THOMPSON       CLOUDY    37  36  93 N9G17     29.90S
WINNIPEG       CLOUDY    48  45  87 N14       29.84R
LYNN LAKE      LGT RAIN  39  37  93 N7        30.05S
CHURCHILL      PTSUNNY   34  34 100 N15       29.91S WCI  24
GILLAM         CLOUDY    36  34  93 N10       29.82S FOG
$$
                ***SASKATCHEWAN***

CITY           SKY/WX    TMP DP  RH WIND       PRES   REMARKS
ESTEVAN        CLOUDY    50  43  76 NW21      30.08R
KINDERSLEY     SUNNY     46  37  71 W5        30.25R
LLOYDMINSTER   MOSUNNY   46  45  93 CALM      30.25S
PRINCE ALBERT  MOSUNNY   48  39  71 NW10      30.16R
REGINA         MOSUNNY   50  41  71 NW20      30.14R
YORKTON          N/A     50  43  76 NW18G24   30.02R


USA.gov is the U.S. government's official web portal to all federal, state and local government web resources and services.